User: anonymous   Login
Location: Mascot Post Office (historical)
(40.2645°N, 99.5462°W)
Time: 08:29:06
(UTC+00:00)
Language:

Cosmos 2341 Rocket - Orbit

View from above orbital plane
View from above orbital plane
View from above satellite
View from above satellite

Ground track
Ground track

The orbit data is extracted from the following two-line orbital elements,

1 24773U 97017B   20272.56108743 -.00000004  00000-0 -20187-4 0  9992
2 24773  82.9245 204.5691 0023579 203.7712 330.0160 13.73647378175555
Epoch (UTC): 28 September 2020 13:27:57
Eccentricity: 0.0023579
inclination: 82.9245°
perigee height: 969 km
apogee height: 1004 km
right ascension of ascending node: 204.5691°
argument of perigee: 203.7712°
revolutions per day: 13.73647378
mean anomaly at epoch: 330.0160°
orbit number at epoch: 17555

The dashed part of the orbit path shows where the satellite is in the earth's shadow,  

DLR